Regional Weather Roundup
Issued by NWS

Home | Current Version | Previous Version | Graphics & Text | Print | Product List | Glossary On
Versions: 1 2 3 4 5 6 7 8 9 10 11 12 13 14 15 16 17 18 19 20 21 22 23 24 25 26 27 28 29 30 31 32 33 34 35 36 37 38 39 40 41 42 43 44 45 46 47 48 49 50
212
ASUS43 KFSD 100210
RWRSD

WEATHER ROUNDUP FOR SOUTH DAKOTA
NATIONAL WEATHER SERVICE SIOUX FALLS SD
800 PM CST TUE FEB 09 2016

NOTE: "FAIR" INDICATES FEW OR NO CLOUDS BELOW 12,000 FEET WITH NO
SIGNIFICANT WEATHER AND/OR OBSTRUCTIONS TO VISIBILITY.


SDZ001>005-009-010-012>017-100300-
NORTHWEST AND NORTH CENTRAL SOUTH DAKOTA

CITY           SKY/WX    TMP DP  RH WIND       PRES   REMARKS
BUFFALO          N/A     38  27  64 SW6       29.99F
FAITH            N/A     36  21  54 NE5       30.07F
MOBRIDGE       CLOUDY    33  21  61 SE6       30.07F WCI  28
$$

SDZ012>016-024>037-041>051-057-063-072>074-100300-
SOUTHWEST AND SOUTH CENTRAL SOUTH DAKOTA

CITY           SKY/WX    TMP DP  RH WIND       PRES   REMARKS
RAPID CTY ARPT CLEAR     31  26  82 CALM      30.10S
PIERRE         CLOUDY    32  23  69 S3        30.10F
CUSTER         CLEAR     40  24  53 W14G22    30.12F
ELLSWORTH AFB  CLEAR     36  28  73 CALM      30.09S
PHILIP         CLOUDY    37  28  70 W5        30.09F
PINE RIDGE     CLEAR     33  27  78 CALM      30.11F
SPEARFISH      FAIR      45  28  53 W14       30.11S
WINNER         CLOUDY    34  22  61 S6        30.11F WCI  29
$$

SDZ004>011-016>023-039-040-100300-
NORTHEAST SOUTH DAKOTA

CITY           SKY/WX    TMP DP  RH WIND       PRES   REMARKS
ABERDEEN       CLOUDY    25  14  63 E5        30.15F WCI  19
WATERTOWN      CLOUDY    19  10  68 NE6       30.14F WCI  11
BROOKINGS      CLOUDY    20  13  74 CALM      30.15F
SISSETON         N/A     15   9  76 NE7       30.19F WCI   5
$$

SDZ017-020-022-023-036>040-048>070-100300-
SOUTHEAST SOUTH DAKOTA

CITY           SKY/WX    TMP DP  RH WIND       PRES   REMARKS
SIOUX FALLS    CLOUDY    22  14  71 CALM      30.18F
HURON          CLOUDY    26  16  65 S7        30.15F WCI  18
CHAMBERLAIN    CLOUDY    29  20  71 E3        30.14F
MITCHELL       CLOUDY    28  16  60 S6        30.18F WCI  22
YANKTON        CLOUDY    25  12  58 S3        30.21F
$$

ABBREVIATIONS USED IN REMARKS
   TC - TEMPERATURE IN CELSIUS
  WCI - WIND CHILL INDEX
   HX - HEAT INDEX
  VSB - VISIBILITY





USA.gov is the U.S. government's official web portal to all federal, state and local government web resources and services.